Simultaneous Nadir Overpasses (SNOs) Predictions

Prediction of SNOs between METOP-B and TERRA Satellite Orbit:

Table of predicted SNOs for the next 14.0 days since TLE Epoch: 1/14/2023
Index Date (METOP-B) Time (METOP-B) Lat,Lon (METOP-B) SZA (METOP-B ) Date (TERRA) Time (TERRA) Lat,Lon (TERRA) SZA (TERRA ) Distance(km) Time Diff (sec)
1 01/14/2023 19:09:01 80.96, -71.53 103.59 01/14/2023 19:10:10 80.96, -71.63 103.60 1.77 69
2 01/14/2023 19:59:41 -80.97, 96.08 76.39 01/14/2023 19:59:32 -80.97, 96.19 76.38 1.88 9
3 01/17/2023 11:20:40 80.95, 45.31 103.04 01/17/2023 11:21:44 80.94, 45.27 103.05 0.83 64
4 01/17/2023 12:11:19 -80.98,-146.68 76.89 01/17/2023 12:11:05 -80.99,-146.54 76.88 2.62 14
5 01/20/2023 03:32:17 80.97, 162.80 102.52 01/20/2023 03:33:16 80.96, 162.62 102.52 3.17 59
6 01/20/2023 04:22:57 -80.98, -29.53 77.45 01/20/2023 04:22:38 -80.98, -29.52 77.46 0.32 19
7 01/22/2023 19:43:54 80.96, -80.16 101.91 01/22/2023 19:44:47 80.96, -80.28 101.91 2.22 53
8 01/22/2023 20:34:34 -80.98, 87.54 78.06 01/22/2023 20:34:09 -80.98, 87.60 78.07 1.15 25
9 01/25/2023 11:55:33 80.94, 36.44 101.20 01/25/2023 11:56:19 80.95, 36.56 101.22 2.14 46
10 01/25/2023 12:46:11 -80.99,-155.11 78.68 01/25/2023 12:45:40 -80.99,-155.17 78.70 1.15 31



Historial Predications of SNOs between METOP-B and TERRA
